Location: Academy at Carrie F Thomas
(32.8490°N, 97.2053°W)
Time: 09:59:12
(UTC+00:00)

Meteor 1-25 Rocket - Pass Details

Date: 10 July 2022
Orbit: 835 x 892 km, 81.2° (Epoch: 14 August)

Event Time Altitude Azimuth Distance (km) Brightness Sun altitude
Exits shadow 09:35:36 21° 275° (W) 1,910 5.7 -20.0°
Maximum altitude 09:36:25 21° 287° (WNW) 1,882 5.7 -19.9°
Drops below altitude 10° 09:40:45 10° 335° (NNW) 2,554 6.9 -19.2°
Sets 09:43:50 0° 351° (N) 3,490 7.9 -18.7°
